Weather History for West Palm Beach, FL

Change the Weather History Date:

Sunday, October 7, 2012

  Actual Average Record
Temperature  
Mean Temperature 80 °F 80 °F  
Max Temperature 85 °F 86 °F 93 °F (2009)
Min Temperature 74 °F 74 °F 65 °F (1972)
Degree Days  
Heating Degree Days 0 0  
Month to date heating degree days 0 0  
Since 1 July heating degree days 0 0  
Cooling Degree Days 15 15  
Month to date cooling degree days 126 107  
Year to date cooling degree days 3543 3315  
Growing Degree Days 28 (Base 50)    
Moisture  
Dew Point 73 °F    
Average Humidity 84    
Maximum Humidity 94    
Minimum Humidity 74    
Precipitation  
Precipitation T in 0.19 in 3.75 in (1891)
Month to date precipitation 2.34 1.40  
Year to date precipitation 69.74 50.47  
Snow  
Snow 0.00 in - - ()
Month to date snowfall 0.0  
Since 1 July snowfall 0.0  
Since 1 September snowfall 0.0  
Snow Depth 0.00 in    
Sea Level Pressure  
Sea Level Pressure 29.93 in    
Wind  
Wind Speed 5 mph (ENE)    
Max Wind Speed 15 mph    
Max Gust Speed 17 mph    
Visibility 10 miles    
Events Rain , Thunderstorm    
T = Trace of Precipitation, MM = Missing Value Source: NWS Daily Summary

Daily Weather History Graph

Daily Weather History Graph

Search for Another Location

Airport:

Trip Planner

Search our weather history database for the weather conditions in past years. The results will help you decide how hot, cold, wet, or windy it might be!

Date:

Astronomy

Oct. 07, 2012 Rise Set
Actual Time 7:15 AM EDT 6:59 PM EDT
Civil Twilight 6:52 AM EDT 7:22 PM EDT
Nautical Twilight 6:25 AM EDT 7:49 PM EDT
Astronomical Twilight 5:58 AM EDT 8:16 PM EDT
Moon No Moon Rise 1:29 PM EDT (10/7)
Length of Visible Light 12h 30m
Length of Day
11h 43m
Waning Gibbous, 56% of the Moon is Illuminated
Oct 7
Waning Gibbous
Oct 8
Last Quarter
Oct 15
New
Oct 21
First Quarter
Oct 29
Full

Hourly Weather History & Observations

Time (EDT) Temp. Heat Index Dew Point Humidity Pressure Visibility Wind Dir Wind Speed Gust Speed Precip Events Conditions
12:17 AM 73.4 °F - 69.8 °F 88% 29.96 in 4.0 mi East 9.2 mph - 0.05 in Rain , Thunderstorm Thunderstorms and Rain
12:46 AM 75.2 °F - 69.8 °F 83% 29.93 in 10.0 mi ESE 8.1 mph - 0.09 in Rain Light Rain
12:53 AM 75.0 °F - 70.0 °F 84% 29.92 in 10.0 mi SE 6.9 mph - 0.09 in Rain Light Rain
1:53 AM 77.0 °F - 73.0 °F 88% 29.90 in 10.0 mi SSE 10.4 mph - 0.00 in   Mostly Cloudy
2:53 AM 75.9 °F - 73.0 °F 91% 29.89 in 10.0 mi NNW 5.8 mph - N/A   Mostly Cloudy
3:53 AM 75.9 °F - 73.0 °F 91% 29.89 in 10.0 mi NW 4.6 mph - N/A   Mostly Cloudy
4:53 AM 75.9 °F - 73.0 °F 91% 29.89 in 10.0 mi NNW 4.6 mph - N/A   Mostly Cloudy
5:53 AM 75.9 °F - 73.0 °F 91% 29.91 in 10.0 mi Calm Calm - N/A   Scattered Clouds
6:53 AM 75.0 °F - 73.0 °F 94% 29.92 in 10.0 mi Calm Calm - N/A   Scattered Clouds
7:53 AM 75.9 °F - 73.9 °F 94% 29.92 in 10.0 mi Calm Calm - N/A   Mostly Cloudy
8:53 AM 81.0 °F 86.7 °F 75.0 °F 82% 29.94 in 10.0 mi North 3.5 mph - N/A   Mostly Cloudy
9:53 AM 82.9 °F 90.8 °F 75.9 °F 79% 29.96 in 10.0 mi NE 9.2 mph - N/A   Mostly Cloudy
10:34 AM 84.2 °F 92.3 °F 75.2 °F 74% 29.96 in 10.0 mi NNE 8.1 mph - N/A   Mostly Cloudy
10:53 AM 82.9 °F 90.2 °F 75.0 °F 77% 29.97 in 7.0 mi NE 6.9 mph - 0.00 in Rain Light Rain
11:53 AM 82.9 °F 89.4 °F 73.9 °F 74% 29.97 in 7.0 mi ESE 11.5 mph - 0.00 in   Mostly Cloudy
12:53 PM 82.0 °F 87.4 °F 73.0 °F 74% 29.96 in 10.0 mi ENE 9.2 mph - N/A   Mostly Cloudy
1:53 PM 82.9 °F 88.8 °F 73.0 °F 72% 29.95 in 10.0 mi East 11.5 mph - N/A   Mostly Cloudy
2:53 PM 82.9 °F 89.4 °F 73.9 °F 74% 29.92 in 10.0 mi East 6.9 mph - N/A   Mostly Cloudy
3:31 PM 84.2 °F 89.6 °F 71.6 °F 66% 29.91 in 10.0 mi ENE 5.8 mph - N/A   Mostly Cloudy
3:53 PM 84.0 °F 89.6 °F 72.0 °F 67% 29.91 in 10.0 mi ENE 4.6 mph - 0.00 in Rain Light Rain
4:53 PM 84.0 °F 89.6 °F 72.0 °F 67% 29.92 in 10.0 mi ENE 8.1 mph - 0.00 in   Mostly Cloudy
5:53 PM 82.0 °F 87.4 °F 73.0 °F 74% 29.92 in 10.0 mi ENE 5.8 mph - 0.00 in   Mostly Cloudy
6:53 PM 82.0 °F 84.9 °F 68.0 °F 62% 29.93 in 10.0 mi East 5.8 mph - N/A   Overcast
7:53 PM 82.0 °F 87.9 °F 73.9 °F 76% 29.95 in 10.0 mi East 5.8 mph - 0.00 in Rain Light Rain
8:53 PM 79.0 °F - 73.9 °F 84% 29.96 in 10.0 mi Calm Calm - 0.00 in Rain Light Rain
9:53 PM 78.1 °F - 75.0 °F 90% 29.97 in 10.0 mi Calm Calm - 0.00 in   Mostly Cloudy
10:53 PM 82.0 °F 87.9 °F 73.9 °F 76% 29.98 in 10.0 mi East 6.9 mph - N/A   Mostly Cloudy
11:53 PM 81.0 °F 86.2 °F 73.9 °F 79% 29.96 in 10.0 mi East 4.6 mph - N/A   Mostly Cloudy